Regional Weather Roundup
Issued by NWS

Home | Current Version | Previous Version | Text Only | Print | Product List | Glossary On
Versions: 1 2 3 4 5 6 7 8 9 10 11 12 13 14 15 16 17 18 19 20 21 22 23 24 25 26 27 28 29 30 31 32 33 34 35 36 37 38 39 40 41 42 43 44 45 46 47 48 49 50
000
ASUS44 KJAN 191810
RWRMS

MISSISSIPPI HOURLY WEATHER ROUNDUP
NATIONAL WEATHER SERVICE JACKSON MS
1200 PM CST FRI DEC 19 2014

NOTE: "FAIR: INDICATES FEW OR NO CLOUDS BELOW 12,000 FEET WITH NO
SIGNIFICANT WEATHER AND/OR OBSTRUCTIONS TO VISIBILITY.

MSZ001>002-007>008-010>013-018>021-025>028-034>036-191900-
NORTHWEST MISSISSIPPI

CITY           SKY/WX    TMP DP  RH WIND       PRES   REMARKS
CLARKSDALE     CLOUDY    45  39  81 N8        30.28R
CLEVELAND      CLOUDY    46  42  85 N8        30.25F
GREENWOOD      CLOUDY    49  38  65 N3        30.23S
6HR MIN TEMP:  45; 6HR MAX TEMP:  49;

GREENVILLE     LGT RAIN  47  42  83 N12       30.24S
6HR MIN TEMP:  44; 6HR MAX TEMP:  47; 6HR PCP: TRACE;

GRENADA        CLOUDY    46  37  71 CALM      30.25R
OLIVE BRANCH   CLOUDY    39  37  93 NE6       30.27R WCI  35
OXFORD         CLOUDY    43  34  70 N5        30.24F
TUNICA         CLOUDY    43  36  75 N8        30.28F
$$

MSZ003>006-009-014>017-022>024-029>033-037>039-191900-
NORTHEAST MISSISSIPPI

CITY           SKY/WX    TMP DP  RH WIND       PRES   REMARKS
COLUMBUS AFB   CLOUDY    47  37  67 NE2       30.21F
6HR MIN TEMP:  41; 6HR MAX TEMP:  47;

CORINTH        CLOUDY    43  34  70 CALM      30.23S
GOLDN TRIANGLE PTSUNNY   46  37  71 E5        30.21F
STARKVILLE     FAIR      46  37  71 CALM      30.22S
TUPELO         CLOUDY    45  36  70 NE5       30.23S
6HR MIN TEMP:  43; 6HR MAX TEMP:  46;

$$

MSZ040-058-191900-
CENTRAL MISSISSIPPI

CITY           SKY/WX    TMP DP  RH WIND       PRES   REMARKS
JACKSON INTL   LGT RAIN  47  41  80 NE8       30.16F
6HR MIN TEMP:  47; 6HR MAX TEMP:  49; 6HR PCP:  0.02;

JACKSON HAWKNS LGT RAIN  48  41  76 E7        30.16F
6HR MIN TEMP:  47; 6HR MAX TEMP:  49; 6HR PCP:  0.02;

MERIDIAN KEY   LGT RAIN  50  36  58 NE8       30.17F
6HR MIN TEMP:  45; 6HR MAX TEMP:  50; 6HR PCP: TRACE;

MERIDIAN NAS   CLOUDY    48  36  63 E6        30.19F
6HR MIN TEMP:  44; 6HR MAX TEMP:  49;

RAYMOND        LGT RAIN  46  41  81 CALM      30.16F
VICKSBURG      RAIN      47  44  90 NE7       30.18F
6HR MIN TEMP:  47; 6HR MAX TEMP:  50; 6HR PCP:  0.23;

$$

MSZ059>079-191900-
SOUTH MISSISSIPPI

CITY           SKY/WX    TMP DP  RH WIND       PRES   REMARKS
HATTIESBURG    CLOUDY    49  43  80 NE7       30.15F
6HR MIN TEMP:  47; 6HR MAX TEMP:  50; 6HR PCP:  0.29;

MCCOMB         LGT RAIN  47  44  90 NE8       30.11F
6HR MIN TEMP:  46; 6HR MAX TEMP:  50; 6HR PCP:  0.53;

NATCHEZ        CLOUDY    48  45  87 E8        30.14F
6HR MIN TEMP:  48; 6HR MAX TEMP:  50; 6HR PCP:  0.15;

PINE BELT      CLOUDY    46  39  76 NE7       30.16F
6HR MIN TEMP:  46; 6HR MAX TEMP:  46; 6HR PCP:  0.10;

$$

MSZ080>082-191900-
COASTAL MISSISSIPPI

CITY           SKY/WX    TMP DP  RH WIND       PRES   REMARKS
BAY ST LOUIS   CLOUDY    48  45  87 NE6       30.10F
BILOXI         MOSUNNY   52  51  97 NE10      30.09F
6HR MIN TEMP:  47; 6HR MAX TEMP:  52; 6HR PCP:  0.77;

PASCAGOULA     CLOUDY    51  48  89 NE9       30.11F
6HR MIN TEMP:  47; 6HR MAX TEMP:  53; 6HR PCP:  0.61;

GULFPORT       CLOUDY    52  49  89 NE9       30.10F
6HR MIN TEMP:  47; 6HR MAX TEMP:  52; 6HR PCP:  1.27;

$$


USA.gov is the U.S. government's official web portal to all federal, state and local government web resources and services.